Terug naar catalogus

TITAN 34D TRANSTAGE DEB

ActiefGTO
NORAD 23130·DEBRIS·🇺🇸 United States

Gelanceerd Sep 2, 1988 vanaf Cape Canaveral Space Force Station

Loading…

TLE

VerouderdSource: Space-Track

Epoch: Sep 6, 2026, 17:13 UTC

1 23130U 88077M   26249.71761735 -.00000062  00000-0  16379-1 0  9995
2 23130  27.4169  49.9386 7284079 110.7685 336.5303  2.00693268 52673

Volg TITAN 34D TRANSTAGE DEB in realtime met AllMySat

Download on the App Store